Location: Eschertshofen
(49.3064°N, 11.5756°E)
Time: 18:11:04
(UTC+00:00)

Spot 2 Rocket - Pass Details

Date: 26 June 2021
Orbit: 757 x 771 km, 98.5° (Epoch: 25 July)

Event Time Altitude Azimuth Distance (km) Brightness Sun altitude
Exits shadow 20:04:35 - 152° (SSE) 2,658 5.7 -5.7°
Reaches altitude 10° 20:05:30 10° 151° (SSE) 2,298 5.3 -5.8°
Maximum altitude 20:10:30 64° 71° (ENE) 850 3.7 -6.4°
Drops below altitude 10° 20:15:34 10° 351° (N) 2,323 7.0 -6.9°
Sets 20:17:54 0° 348° (NNW) 3,256 8.0 -7.2°
